SM7GXQ Weather Reports


Display with metric or nautical units.
time (UTC)temp
F
wind
direction
speed
MPH
gust
MPH
rain 1hr
in
rain 24hr
in
rain mn
in
humidity
%
barometer
mb
20260507051504 44 349 6.0 8.0 0.00 0.00 0.00 82 1013.5
20260507050005 44 349 7.0 9.0 0.00 0.00 0.00 83 1013.5
20260507040004 36 50 2.0 3.0 0.00 0.00 0.00 86 1013.1
20260507034504 35 48 1.0 3.0 0.00 0.00 0.00 84 1013.1
20260507030004 36 46 0.0 1.0 0.00 0.00 0.00 80 1012.8
20260507020003 34 51 2.0 3.0 0.00 0.00 0.00 85 1012.6
20260507010003 35 51 0.0 0.0 0.00 0.00 0.00 83 1012.5
20260507001503 35 50 2.0 3.0 0.00 0.00 0.00 84 1012.5
20260507000004 36 50 0.0 2.0 0.00 0.00 0.00 82 1012.5
20260506224504 37 50 0.0 0.0 0.00 0.00 0.00 79 1012.4
20260506221505 38 50 0.0 2.0 0.00 0.00 0.00 77 1012.2
20260506211504 39 50 0.0 2.0 0.00 0.00 0.00 72 1011.9
20260506210004 41 50 0.0 0.0 0.00 0.00 0.00 70 1011.9
20260506201504 44 50 0.0 0.0 0.00 0.00 0.00 62 1011.9
20260506200004 44 50 0.0 3.0 0.00 0.00 0.00 61 1011.9
20260506191504 46 71 1.0 3.0 0.00 0.00 0.00 54 1011.8
20260506190005 47 63 1.0 5.0 0.00 0.00 0.00 51 1011.4
20260506180006 48 70 4.0 12.0 0.00 0.00 0.00 48 1011.2
20260506173005 48 67 7.0 12.0 0.00 0.00 0.00 44 1011.2
20260506164505 49 80 5.0 12.0 0.00 0.00 0.00 47 1011.5
20260506154504 49 77 5.0 15.0 0.00 0.00 0.00 46 1011.3
20260506151504 50 82 5.0 13.0 0.00 0.00 0.00 51 1011.3
20260506144504 50 68 8.0 14.0 0.00 0.00 0.00 51 1011.3
20260506134504 51 111 7.0 17.0 0.00 0.00 0.00 47 1011.2
20260506133005 51 108 5.0 14.0 0.00 0.00 0.00 46 1011.2
20260506123005 52 68 9.0 17.0 0.00 0.00 0.00 42 1011.2
20260506120004 53 75 9.0 14.0 0.00 0.00 0.00 42 1011.3
20260506114504 52 59 6.0 20.0 0.00 0.00 0.00 45 1011.4
20260506111505 52 92 5.0 14.0 0.00 0.00 0.00 47 1011.6
20260506110004 51 86 7.0 13.0 0.00 0.00 0.00 47 1011.6
20260506104505 51 69 7.0 15.0 0.00 0.00 0.00 48 1011.7
20260506103005 51 78 7.0 15.0 0.00 0.00 0.00 48 1011.8
20260506100006 51 69 8.0 15.0 0.00 0.00 0.00 50 1011.7
20260506094504 51 84 9.0 14.0 0.00 0.00 0.00 49 1011.6
20260506091504 51 86 4.0 13.0 0.00 0.00 0.00 52 1011.6
20260506090004 51 66 7.0 14.0 0.00 0.00 0.00 49 1011.6
20260506083005 51 75 4.0 13.0 0.00 0.00 0.00 51 1011.3
20260506081505 51 91 3.0 12.0 0.00 0.00 0.00 52 1011.3
20260506071504 50 85 7.0 12.0 0.00 0.00 0.00 51 1011.3